Погода в Зубово

Россия / Нижегородская область     56°51′10″N   44°07′10″E
темп.,
°C
ветер,
м/с
пор.,
м/с
влажн.,
%
обл.,
%
осадки,
мм/ч
давл.,
гПа
погр.,
м
16 апреля, пт
пт1600:00+8всв61389100 0.0 1022485
03:00+7всв51389100 0.0 1023536
06:00+6всв51386100 0.0 1024539
09:00+7всв5148492 0.0 1024552
12:00+11всв697199 0.0 1025857
15:00+11всв696772 0.0 1025899
18:00+9всв5116991 0.0 1026688
21:00+6всв5137150 0.0 1027521
17 апреля, сб
сб1700:00+4всв412785 0.0 1027382
03:00+3всв412805 0.0 1028337
06:00+3всв412765 0.0 1028373
09:00+7всв510535 0.0 1028598
12:00+11всв58395 0.0 10281034
15:00+12всв57385 0.0 10271222
18:00+10всв49512 0.0 1026604
21:00+6всв412680 0.0 1027346
18 апреля, вс
вс1800:00+4всв312750 0.0 1027325
03:00+3всв411830 0.0 1027261
06:00+3всв311820 0.0 1027314
09:00+8в59590 0.0 1026853
12:00+12всв57435 0.0 10251568
15:00+13всв574153 0.0 10251885
18:00+10всв5954100 0.0 1025871
21:00+7всв51275100 0.0 1027598
19 апреля, пн
пн1900:00+5всв51176100 0.0 1028601
03:00+4всв51174100 0.0 1028517
06:00+3всв51174100 0.0 1029528
09:00+5в51063100 0.0 1030632
12:00+7в584992 0.0 10301179
15:00+9в683632 0.0 10291708
18:00+7в594012 0.0 10291335
21:00+4в41249100 0.0 1030555
20 апреля, вт
вт2000:00+2в5135334 0.0 1029567
03:00+1в4126137 0.0 1029458
06:00+1в5136497 0.0 1029506
09:00+5вюв61257100 0.0 1028758
12:00+5вюв6136086 0.0 1026869
15:00+9вюв71255100 0.0 10241088
18:00+6вюв71566100 0.0 10231061
21:00+6вюв71660100 0.0 10221014